ASTRA 5B

Last updated on Tue Oct 15 2024 00:02:39 GMT+0000 (Coordinated Universal Time)

1 39617U 14011B 24288.25327071 .00000135 00000+0 00000+0 0 9991 2 39617 0.0757 306.2607 0003395 272.8609 278.8628 1.00270065 38547
UTC large
Height (km)
Speed (km/s)
/
Latitude / Longitude
Inclination (degrees)
Orbital Period (minutes)
Azimuth
Elevation
Range (km)
Doppler Factor

Next 0 passes for location: London (51.5072 / 0.1276)

Sorry there are no passes over London.